Lexington Weather

Lexington, Massachusetts, USA

34°F
10/30/2020 7:12am 
  • Lexington Conditions: Light snow, Mist, Overcast
  • Temperature: 33.8°F / 1.0°CColder 1.1°F than last hour.
  • Dew Point: 33.1°FDecreased 1.1°Fsince last hour.
  • Relative Humidity: 97
  • Wind: Wind from NE NE 2 mph, 10-min avg: 2 mph, gust: 4 mph
  • Barometer: 29.77 inRising 0.02  inHg/hr Rising Slowly
  • Visibility: 3 miles
  • Rain Today: 0.09 in
  •   
Southeast Middlesex County - Winter Weather Advisory
 - SEE ALL NEARBY ALERTS -

Regional Weather Roundup
for Boston / Norton, MA

        
000
ASUS41 KBOX 271304
RWRBOX

REGIONAL WEATHER ROUNDUP
NATIONAL WEATHER SERVICE BOSTON/NORTON MA
900 AM EDT TUE OCT 27 2020

NOTE:  "FAIR" INDICATES FEW OR NO CLOUDS BELOW 12,000 FEET WITH NO 
SIGNIFICANT WEATHER AND/OR OBSTRUCTIONS TO VISIBILITY.

MAZALL-271400-
EASTERN MASSACHUSETTS
  
CITY           SKY/WX    TMP DP  RH WIND       PRES   REMARKS
BOSTON         CLOUDY    49  42  77 NW12      30.17R                  
BEVERLY        CLOUDY    49  43  80 NW9       30.15R                  
LAWRENCE       CLOUDY    48  44  86 NW6       30.17R                  
BEDFORD        CLOUDY    48  42  80 NW7       30.16R                  
BLUE HILL        N/A     47  43  86 NW9       30.14R                  
NORWOOD        CLOUDY    52  42  69 N8        30.16R                  
MARSHFIELD     CLOUDY    54  45  71 VRB7G16   30.14R                  
PLYMOUTH       CLOUDY    53  44  71 N10       30.14R                  
TAUNTON        CLOUDY    54  44  69 N9        30.15R                  
NEW BEDFORD    CLOUDY    55  49  80 N8        30.14R                  
$$

MAZALL-271400-
CAPE COD AND THE ISLANDS
  
CITY           SKY/WX    TMP DP  RH WIND       PRES   REMARKS
FALMOUTH       PTSUNNY   54  48  82 NW12      30.13R                  
HYANNIS        CLOUDY    54  48  80 N14G24    30.10R                  
CHATHAM        CLOUDY    54  50  86 VRB5      30.13R                  
PROVINCETOWN   CLOUDY    53  49  86 N15G22    30.14R                  
NANTUCKET      CLOUDY    59  59 100 N16G24    30.12R                  
MARTHAS VNYRD  CLOUDY    56  53  90 N8        30.13R                  
$$
 
MAZALL-271400-
CENTRAL AND WESTERN MASSACHUSETTS
  
CITY           SKY/WX    TMP DP  RH WIND       PRES   REMARKS
WORCESTER      CLOUDY    47  42  83 N9        30.15S                  
FITCHBURG      CLOUDY    48  42  80 NW6       30.18R                  
ORANGE         PTSUNNY   47  43  86 N3        30.18R                  
SPRINGFIELD    PTSUNNY   49  47  92 N3        30.16R                  
WESTFIELD      CLOUDY    50  43  77 N6        30.17R                  
NORTH ADAMS    PTSUNNY   46  39  76 W3        30.18S                  
PITTSFIELD     CLOUDY    45  40  82 W5        30.16S                  
$$
 
RIZALL-271400-
RHODE ISLAND
  
CITY           SKY/WX    TMP DP  RH WIND       PRES   REMARKS
PROVIDENCE     CLOUDY    55  48  77 N12       30.15R                  
NEWPORT        CLOUDY    54  49  83 N9G17     30.14R                  
BLOCK ISLAND   CLOUDY    55  51  86 N8G16     30.15R                  
SMITHFIELD     CLOUDY    51  48  89 NE12      30.16R                  
WESTERLY       CLOUDY    54  50  86 N9        30.15R                  
$$
 
CTZALL-271400-
CONNECTICUT
  
CITY           SKY/WX    TMP DP  RH WIND       PRES   REMARKS
BRADLEY INTL   PTSUNNY   51  43  74 N8        30.17R                  
HARTFORD       CLOUDY    53  45  74 N9        30.17R                  
BRIDGEPORT     CLOUDY    54  45  71 N8        30.18R                  
DANBURY        CLOUDY    50  42  74 CALM      30.20R                  
GROTON         CLOUDY    54  49  83 N7        30.15R                  
NEW HAVEN      CLOUDY    54  46  74 N8        30.17R                  
CHESTER        PTSUNNY   52  48  87 VRB5G12   30.16R                  
MERIDEN        CLOUDY    52  44  74 NW8       30.18R                  
WILLIMANTIC    CLOUDY    52  47  83 N7        30.16R                  
OXFORD         CLOUDY    48  44  86 NW10      30.18R                  
$$

MEZ002-015-021-024-NHZ003-005-008-011-012-014-VTZ005-008-271400-
NORTHERN NEW ENGLAND
  
CITY           SKY/WX    TMP DP  RH WIND       PRES   REMARKS
PORTLAND ME    CLOUDY    46  43  89 NW3       30.16R                  
BANGOR ME      PTSUNNY   42  36  79 NW9       30.12R                  
CONCORD NH     PTSUNNY   45  39  79 NW10      30.18R                  
MANCHESTER NH  PTSUNNY   47  40  76 NW7       30.16R                  
NASHUA NH      CLOUDY    47  41  80 NW10      30.18R                  
PORTSMOUTH NH  CLOUDY    47  43  83 W5        30.13                   
JAFFREY NH     CLOUDY    44  38  79 VRB3      30.17R                  
KEENE NH       PTSUNNY   45  41  86 N7        30.18R                  
BURLINGTON VT  PTSUNNY   39  31  72 N10       30.25R                  
MT. WASHINGTON FOG       19  19 100 NW47        N/A  VSB 1/16WCI  -3  
$$

NYZ052-076-271400-
EASTERN NEW YORK
  
CITY           SKY/WX    TMP DP  RH WIND       PRES   REMARKS
ALBANY         PTSUNNY   43  41  93 NW8       30.22R                  
NEW YORK CITY  CLOUDY    54  48  80 N10       30.19R                  
$$
 
ANZALL-271400-
MARINE OBSERVATIONS
  
STATION/POSITION TIME  TEMP    WIND        PRES    VSBY  WAVE
                       AIR SEA DIR/SP/G                  HT/PER
                 (UTC) (F)     (DEG/KT/KT) (MB)    (MI)  (FT/S)
BOSTON BUOY      1250   52 56  340/ 17/ 19 1019.7R         3/ 6
BUZZARDS BAY     1200          360/ 18/ 20 1020.2R
NANTUCKET SOUND  1240      61  340/ 17/ 21   N/A
MASS BAY-STELLWA 1204   52 56  340/ 16/ 19 1019.3R  1 7/8  3/ 6
ISLE OF SHOALS   1200   49     320/ 11/ 12 1019.8R
S OF BLOCK IS    1226      62                N/A           4/ 7
$$

......................KEY.........................
  SKY/WX - SKY CONDITION/PRESENT WEATHER
  TMP    - TEMPERATURE IN FAHRENHEIT
  DWPT   - DEWPOINT IN FAHRENHEIT
  RH     - RELATIVE HUMIDITY IN PERCENT
  WIND   - DIRECTION AND SPEED IN MPH
  PRES   - MEAN SEA LEVEL PRESSURE IN INCHES OF HG
  WCI    - WIND CHILL INDEX
  VSB    - VISIBILITY IN MILES
  HX     - HEAT INDEX
  TC     - TEMPERATURE IN CELSIUS
  VRB    - VARIABLE WIND DIRECTION
  N/A    - NOT AVAILABLE
  
      

Other recent Regional Weather Roundups

Fri Oct 30, 6:04am

Fri Oct 30, 5:04am

Fri Oct 30, 4:04am

Fri Oct 30, 3:04am

Fri Oct 30, 2:04am

Fri Oct 30, 1:04am

Fri Oct 30, 12:04am

Thu Oct 29, 11:04pm

Thu Oct 29, 10:04pm

Thu Oct 29, 9:04pm

Thu Oct 29, 8:04pm

Thu Oct 29, 7:04pm

Thu Oct 29, 6:04pm

Thu Oct 29, 5:05pm

Thu Oct 29, 4:05pm

Thu Oct 29, 3:05pm

Thu Oct 29, 2:04pm

Thu Oct 29, 1:04pm

Thu Oct 29, 12:04pm

Thu Oct 29, 11:04am

Thu Oct 29, 10:04am

Thu Oct 29, 9:04am

Thu Oct 29, 8:04am

Thu Oct 29, 7:04am

Thu Oct 29, 6:04am

Thu Oct 29, 5:04am

Thu Oct 29, 4:04am

Thu Oct 29, 3:04am

Thu Oct 29, 2:04am

Thu Oct 29, 1:05am

Thu Oct 29, 12:04am

Wed Oct 28, 11:05pm

Wed Oct 28, 10:04pm

Wed Oct 28, 9:04pm

Wed Oct 28, 8:04pm

Wed Oct 28, 7:05pm

Wed Oct 28, 6:04pm

Wed Oct 28, 5:05pm

Wed Oct 28, 4:04pm

Wed Oct 28, 3:04pm

Wed Oct 28, 2:04pm

Wed Oct 28, 1:05pm

Wed Oct 28, 12:05pm

Wed Oct 28, 11:05am

Wed Oct 28, 10:04am

Wed Oct 28, 9:04am

Wed Oct 28, 8:04am

Wed Oct 28, 7:04am

Wed Oct 28, 6:04am

Wed Oct 28, 5:05am

Wed Oct 28, 4:04am

Wed Oct 28, 3:04am

Wed Oct 28, 2:04am

Wed Oct 28, 1:05am

Wed Oct 28, 12:04am

Tue Oct 27, 11:04pm

Tue Oct 27, 10:04pm

Tue Oct 27, 9:05pm

Tue Oct 27, 8:04pm

Tue Oct 27, 7:04pm

Tue Oct 27, 6:04pm

Tue Oct 27, 5:04pm

Tue Oct 27, 4:05pm

Tue Oct 27, 3:04pm

Tue Oct 27, 2:04pm

Tue Oct 27, 1:04pm

Tue Oct 27, 12:04pm

Tue Oct 27, 11:04am

Tue Oct 27, 10:04am

Tue Oct 27, 8:04am

Tue Oct 27, 7:04am

Tue Oct 27, 6:04am

Tue Oct 27, 5:04am

Tue Oct 27, 4:04am

Tue Oct 27, 3:04am

Tue Oct 27, 2:05am

Tue Oct 27, 1:04am

Tue Oct 27, 12:04am

Mon Oct 26, 11:05pm

Mon Oct 26, 10:04pm

Mon Oct 26, 9:04pm

Mon Oct 26, 8:04pm

Mon Oct 26, 7:04pm

Mon Oct 26, 6:04pm

Mon Oct 26, 5:04pm

Mon Oct 26, 4:05pm

Mon Oct 26, 2:04pm

Mon Oct 26, 1:04pm

Mon Oct 26, 12:04pm

Mon Oct 26, 11:05am

Mon Oct 26, 10:04am

Mon Oct 26, 9:04am

Mon Oct 26, 8:04am

Mon Oct 26, 7:04am

Mon Oct 26, 6:04am

Mon Oct 26, 5:04am

Mon Oct 26, 4:04am

Mon Oct 26, 3:04am

Mon Oct 26, 2:04am

Mon Oct 26, 1:04am

Mon Oct 26, 12:04am

Sun Oct 25, 11:05pm

Sun Oct 25, 10:04pm

Sun Oct 25, 9:04pm

Sun Oct 25, 8:04pm

Sun Oct 25, 7:04pm

Sun Oct 25, 6:04pm

Sun Oct 25, 5:04pm

Sun Oct 25, 4:05pm

Sun Oct 25, 3:04pm

Sun Oct 25, 2:04pm

Sun Oct 25, 1:04pm

Sun Oct 25, 12:04pm

Sun Oct 25, 11:04am

Sun Oct 25, 10:04am

Sun Oct 25, 9:04am

Sun Oct 25, 8:04am

Sun Oct 25, 7:04am

Sun Oct 25, 6:04am

Sun Oct 25, 5:04am

Sun Oct 25, 4:04am

Sun Oct 25, 3:04am

Sun Oct 25, 2:04am

Sun Oct 25, 1:05am

Sun Oct 25, 12:04am

Sat Oct 24, 11:04pm

Sat Oct 24, 10:04pm

Sat Oct 24, 9:04pm

Sat Oct 24, 8:04pm

Sat Oct 24, 7:04pm

Sat Oct 24, 6:04pm

Sat Oct 24, 5:05pm

Sat Oct 24, 4:04pm

Sat Oct 24, 3:04pm

Sat Oct 24, 2:04pm

Sat Oct 24, 1:05pm

Sat Oct 24, 12:04pm

Sat Oct 24, 11:05am

Sat Oct 24, 10:05am

Sat Oct 24, 9:04am

Sat Oct 24, 8:04am

Sat Oct 24, 7:04am

Sat Oct 24, 6:04am

Sat Oct 24, 5:04am

Sat Oct 24, 4:04am

Sat Oct 24, 3:04am

Sat Oct 24, 2:04am

Sat Oct 24, 1:05am

Sat Oct 24, 12:04am

Fri Oct 23, 11:04pm

Fri Oct 23, 10:04pm

Fri Oct 23, 9:04pm

Fri Oct 23, 8:05pm

Fri Oct 23, 7:04pm

Fri Oct 23, 6:04pm

Fri Oct 23, 5:05pm

Fri Oct 23, 4:04pm

Fri Oct 23, 3:04pm

Fri Oct 23, 2:05pm

Fri Oct 23, 1:04pm

Fri Oct 23, 12:04pm

Fri Oct 23, 11:04am

Fri Oct 23, 10:04am

Fri Oct 23, 9:04am

Fri Oct 23, 8:04am

Fri Oct 23, 7:04am

Meta data:

ID: d3a467c7-fb85-4838-aba5-f13cbab84dc5
Link: https://api.weather.gov/products/d3a467c7-fb85-4838-aba5-f13cbab84dc5